Time,TemperatureF,DewpointF,PressureIn,WindDirection,WindDirectionDegrees,WindSpeedMPH,WindSpeedGustMPH,Humidity,HourlyPrecipIn,Conditions,Clouds,dailyrainin,SoftwareType,DateUTC
2013-05-24 00:03:00,49.0,46.0,30.19,NNW,330,6.0,14.0,88,0.00,,,0.06,,2013-05-24 04:03:00,
2013-05-24 00:12:00,49.0,46.0,30.19,NNW,330,6.0,14.0,88,0.00,,,0.06,,2013-05-24 04:12:00,
2013-05-24 00:23:00,49.0,46.0,30.20,North,349,11.0,19.0,88,0.00,,,0.06,,2013-05-24 04:23:00,
2013-05-24 00:33:00,49.0,46.0,30.20,NW,316,8.0,16.0,88,0.00,,,0.06,,2013-05-24 04:33:00,
2013-05-24 00:42:00,49.0,46.0,30.20,NW,316,8.0,16.0,88,0.00,,,0.06,,2013-05-24 04:42:00,
2013-05-24 00:53:00,49.0,46.0,30.21,NNW,342,6.0,13.0,88,0.00,,,0.06,,2013-05-24 04:53:00,
2013-05-24 01:02:00,48.0,45.0,30.21,NNW,342,8.0,12.0,89,0.00,,,0.06,,2013-05-24 05:02:00,
2013-05-24 01:12:00,48.0,45.0,30.21,NNW,342,8.0,12.0,89,0.00,,,0.06,,2013-05-24 05:12:00,
2013-05-24 01:22:00,48.0,45.0,30.21,NNW,334,8.0,15.0,90,0.00,,,0.06,,2013-05-24 05:22:00,
2013-05-24 01:32:00,48.0,45.0,30.21,NNW,336,8.0,16.0,91,0.01,,,0.07,,2013-05-24 05:32:00,
2013-05-24 01:42:00,48.0,45.0,30.21,NNW,336,8.0,16.0,91,0.01,,,0.07,,2013-05-24 05:42:00,
2013-05-24 01:52:00,48.0,45.0,30.22,WNW,287,7.0,15.0,90,0.01,,,0.07,,2013-05-24 05:52:00,
2013-05-24 02:02:00,48.0,45.0,30.22,NNE,23,4.0,14.0,90,0.01,,,0.07,,2013-05-24 06:02:00,
2013-05-24 02:12:00,48.0,45.0,30.22,NNE,23,4.0,14.0,90,0.01,,,0.07,,2013-05-24 06:12:00,
2013-05-24 02:21:00,48.0,45.0,30.22,NNW,336,3.0,6.0,90,0.01,,,0.07,,2013-05-24 06:21:00,
2013-05-24 02:32:00,47.0,44.0,30.22,NNW,342,5.0,12.0,90,0.00,,,0.07,,2013-05-24 06:32:00,
2013-05-24 02:42:00,47.0,44.0,30.22,NNW,342,5.0,12.0,90,0.00,,,0.07,,2013-05-24 06:42:00,
2013-05-24 02:52:00,47.0,45.0,30.23,NNW,340,4.0,9.0,91,0.00,,,0.07,,2013-05-24 06:52:00,
2013-05-24 03:02:00,47.0,45.0,30.22,NNE,24,5.0,13.0,91,0.00,,,0.07,,2013-05-24 07:02:00,
2013-05-24 03:11:00,47.0,45.0,30.22,NNE,24,5.0,13.0,91,0.00,,,0.07,,2013-05-24 07:11:00,
2013-05-24 03:22:00,47.0,45.0,30.23,NNW,340,4.0,10.0,91,0.00,,,0.07,,2013-05-24 07:22:00,
2013-05-24 03:32:00,47.0,45.0,30.24,NNW,331,6.0,10.0,91,0.00,,,0.07,,2013-05-24 07:32:00,
2013-05-24 03:42:00,47.0,45.0,30.24,NNW,331,6.0,10.0,91,0.00,,,0.07,,2013-05-24 07:42:00,
2013-05-24 03:52:00,47.0,44.0,30.24,NW,323,4.0,9.0,90,0.00,,,0.07,,2013-05-24 07:52:00,
2013-05-24 04:02:00,47.0,44.0,30.25,NW,326,6.0,10.0,90,0.00,,,0.07,,2013-05-24 08:02:00,
2013-05-24 04:11:00,47.0,44.0,30.25,NW,326,6.0,10.0,90,0.00,,,0.07,,2013-05-24 08:11:00,
2013-05-24 04:22:00,47.0,44.0,30.25,NW,322,5.0,10.0,90,0.00,,,0.07,,2013-05-24 08:22:00,
2013-05-24 04:33:00,47.0,44.0,30.25,NNW,327,6.0,9.0,89,0.00,,,0.07,,2013-05-24 08:33:00,
2013-05-24 04:42:00,47.0,44.0,30.25,NNW,327,6.0,9.0,89,0.00,,,0.07,,2013-05-24 08:42:00,
2013-05-24 04:52:00,47.0,44.0,30.26,NNW,328,7.0,10.0,88,0.00,,,0.07,,2013-05-24 08:52:00,
2013-05-24 05:02:00,47.0,44.0,30.26,NW,317,3.0,9.0,88,0.00,,,0.07,,2013-05-24 09:02:00,
2013-05-24 05:11:00,47.0,44.0,30.26,NW,317,3.0,9.0,88,0.00,,,0.07,,2013-05-24 09:11:00,
2013-05-24 05:22:00,47.0,44.0,30.27,WNW,295,3.0,6.0,88,0.00,,,0.07,,2013-05-24 09:22:00,
2013-05-24 05:32:00,47.0,44.0,30.27,WNW,292,3.0,6.0,88,0.00,,,0.07,,2013-05-24 09:32:00,
2013-05-24 05:42:00,47.0,44.0,30.27,WNW,292,3.0,6.0,88,0.00,,,0.07,,2013-05-24 09:42:00,
2013-05-24 05:52:00,47.0,44.0,30.27,WNW,287,5.0,10.0,88,0.00,,,0.07,,2013-05-24 09:52:00,
2013-05-24 06:03:00,47.0,43.0,30.27,NW,315,7.0,10.0,86,0.00,,,0.07,,2013-05-24 10:03:00,
2013-05-24 06:12:00,47.0,43.0,30.27,NW,315,7.0,10.0,86,0.00,,,0.07,,2013-05-24 10:12:00,
2013-05-24 06:22:00,46.0,42.0,30.28,NW,317,7.0,10.0,85,0.00,,,0.07,,2013-05-24 10:22:00,
2013-05-24 06:33:00,45.0,41.0,30.28,NNW,334,4.0,10.0,86,0.00,,,0.07,,2013-05-24 10:33:00,
2013-05-24 06:42:00,45.0,41.0,30.28,NNW,334,4.0,10.0,86,0.00,,,0.07,,2013-05-24 10:42:00,
2013-05-24 06:53:00,45.0,41.0,30.29,NW,325,5.0,10.0,86,0.00,,,0.07,,2013-05-24 10:53:00,
2013-05-24 07:02:00,44.0,40.0,30.30,NW,325,5.0,9.0,87,0.00,,,0.07,,2013-05-24 11:02:00,
2013-05-24 07:12:00,44.0,40.0,30.30,NW,325,5.0,9.0,87,0.00,,,0.07,,2013-05-24 11:12:00,
2013-05-24 07:22:00,44.0,41.0,30.30,NNW,328,6.0,10.0,88,0.00,,,0.07,,2013-05-24 11:22:00,
2013-05-24 07:32:00,46.0,43.0,30.31,NW,322,6.0,10.0,88,0.00,,,0.07,,2013-05-24 11:32:00,
2013-05-24 07:42:00,46.0,43.0,30.31,NW,322,6.0,10.0,88,0.00,,,0.07,,2013-05-24 11:42:00,
2013-05-24 07:52:00,46.0,42.0,30.32,NW,317,10.0,15.0,86,0.00,,,0.07,,2013-05-24 11:52:00,
2013-05-24 08:02:00,46.0,41.0,30.33,NNW,343,8.0,13.0,83,0.00,,,0.07,,2013-05-24 12:02:00,
2013-05-24 08:11:00,46.0,41.0,30.33,NNW,343,8.0,13.0,83,0.00,,,0.07,,2013-05-24 12:11:00,
2013-05-24 08:22:00,47.0,41.0,30.32,NNW,327,11.0,14.0,81,0.00,,,0.07,,2013-05-24 12:22:00,
2013-05-24 08:32:00,49.0,42.0,30.33,NW,307,10.0,13.0,78,0.00,,,0.07,,2013-05-24 12:32:00,
2013-05-24 08:42:00,49.0,42.0,30.33,NW,307,10.0,13.0,78,0.00,,,0.07,,2013-05-24 12:42:00,
2013-05-24 08:52:00,49.0,42.0,30.34,NW,325,8.0,13.0,77,0.00,,,0.07,,2013-05-24 12:52:00,
2013-05-24 09:02:00,50.0,42.0,30.35,NW,313,8.0,14.0,74,0.00,,,0.07,,2013-05-24 13:02:00,
2013-05-24 09:11:00,50.0,42.0,30.35,NW,313,8.0,14.0,74,0.00,,,0.07,,2013-05-24 13:11:00,
2013-05-24 09:21:00,51.0,43.0,30.36,WNW,290,8.0,13.0,74,0.00,,,0.07,,2013-05-24 13:21:00,
2013-05-24 09:32:00,52.0,43.0,30.36,WNW,285,7.0,12.0,72,0.00,,,0.07,,2013-05-24 13:32:00,
2013-05-24 09:42:00,52.0,43.0,30.36,WNW,285,7.0,12.0,72,0.00,,,0.07,,2013-05-24 13:42:00,
2013-05-24 09:52:00,53.0,44.0,30.36,NNW,328,7.0,12.0,71,0.00,,,0.07,,2013-05-24 13:52:00,
2013-05-24 10:01:00,53.0,43.0,30.37,NW,325,8.0,13.0,69,0.00,,,0.07,,2013-05-24 14:01:00,
2013-05-24 10:11:00,53.0,43.0,30.37,NW,325,8.0,13.0,69,0.00,,,0.07,,2013-05-24 14:11:00,
2013-05-24 10:21:00,55.0,45.0,30.37,WNW,302,7.0,15.0,68,0.00,,,0.07,,2013-05-24 14:21:00,
2013-05-24 10:32:00,54.0,44.0,30.37,NNW,328,8.0,14.0,68,0.00,,,0.07,,2013-05-24 14:32:00,
2013-05-24 10:42:00,54.0,44.0,30.37,NNW,328,8.0,14.0,68,0.00,,,0.07,,2013-05-24 14:42:00,
2013-05-24 10:52:00,56.0,44.0,30.37,NW,322,8.0,14.0,64,0.00,,,0.07,,2013-05-24 14:52:00,
2013-05-24 11:02:00,58.0,45.0,30.38,WSW,238,3.0,16.0,61,0.00,,,0.07,,2013-05-24 15:02:00,
2013-05-24 11:11:00,58.0,45.0,30.38,WSW,238,3.0,16.0,61,0.00,,,0.07,,2013-05-24 15:11:00,
2013-05-24 11:21:00,58.0,45.0,30.38,WNW,294,4.0,15.0,61,0.00,,,0.07,,2013-05-24 15:21:00,
2013-05-24 11:33:00,58.0,44.0,30.38,West,281,10.0,17.0,59,0.00,,,0.07,,2013-05-24 15:33:00,
2013-05-24 11:43:00,58.0,44.0,30.38,West,281,10.0,17.0,59,0.00,,,0.07,,2013-05-24 15:43:00,
2013-05-24 11:52:00,59.0,46.0,30.38,NNW,338,5.0,15.0,61,0.00,,,0.07,,2013-05-24 15:52:00,
2013-05-24 12:03:00,61.0,44.0,30.38,WSW,245,5.0,16.0,54,0.00,,,0.07,,2013-05-24 16:03:00,
2013-05-24 12:12:00,61.0,44.0,30.38,WSW,245,5.0,16.0,54,0.00,,,0.07,,2013-05-24 16:12:00,
2013-05-24 12:22:00,63.0,45.0,30.38,West,281,6.0,15.0,52,0.00,,,0.07,,2013-05-24 16:22:00,
2013-05-24 12:32:00,63.0,44.0,30.38,SW,236,6.0,17.0,50,0.00,,,0.07,,2013-05-24 16:32:00,
2013-05-24 12:42:00,63.0,44.0,30.38,SW,236,6.0,17.0,50,0.00,,,0.07,,2013-05-24 16:42:00,
2013-05-24 12:52:00,64.0,45.0,30.38,NNW,340,12.0,18.0,50,0.00,,,0.04,,2013-05-24 16:52:00,
2013-05-24 13:02:00,64.0,43.0,30.39,West,278,6.0,16.0,46,0.00,,,0.04,,2013-05-24 17:02:00,
2013-05-24 13:12:00,64.0,43.0,30.39,West,278,6.0,16.0,46,0.00,,,0.04,,2013-05-24 17:12:00,
2013-05-24 13:22:00,64.0,45.0,30.39,NW,323,4.0,20.0,50,0.00,,,0.04,,2013-05-24 17:22:00,
2013-05-24 13:32:00,65.0,44.0,30.39,NW,317,4.0,16.0,46,0.00,,,0.04,,2013-05-24 17:32:00,
2013-05-24 13:42:00,65.0,44.0,30.39,NW,317,4.0,16.0,46,0.00,,,0.04,,2013-05-24 17:42:00,
2013-05-24 13:52:00,66.0,44.0,30.39,WNW,288,8.0,18.0,45,0.00,,,0.04,,2013-05-24 17:52:00,
2013-05-24 14:01:00,67.0,44.0,30.39,West,277,6.0,16.0,44,0.00,,,0.04,,2013-05-24 18:01:00,
2013-05-24 14:12:00,67.0,44.0,30.39,West,277,6.0,16.0,44,0.00,,,0.04,,2013-05-24 18:12:00,
2013-05-24 14:22:00,66.0,45.0,30.38,NW,308,3.0,14.0,47,0.00,,,0.04,,2013-05-24 18:22:00,
2013-05-24 14:32:00,68.0,44.0,30.38,SSW,213,3.0,16.0,42,0.00,,,0.04,,2013-05-24 18:32:00,
2013-05-24 14:42:00,68.0,44.0,30.38,SSW,213,3.0,16.0,42,0.00,,,0.04,,2013-05-24 18:42:00,
2013-05-24 14:52:00,67.0,44.0,30.38,NNW,331,4.0,12.0,44,0.00,,,0.03,,2013-05-24 18:52:00,
2013-05-24 15:01:00,69.0,45.0,30.38,West,275,3.0,17.0,42,0.00,,,0.03,,2013-05-24 19:01:00,
2013-05-24 15:11:00,69.0,45.0,30.38,West,275,3.0,17.0,42,0.00,,,0.03,,2013-05-24 19:11:00,
2013-05-24 15:21:00,68.0,42.0,30.38,WNW,296,12.0,20.0,39,0.00,,,0.03,,2013-05-24 19:21:00,
2013-05-24 15:32:00,69.0,43.0,30.38,NW,304,7.0,16.0,39,0.00,,,0.03,,2013-05-24 19:32:00,
2013-05-24 15:42:00,69.0,43.0,30.38,NW,304,7.0,16.0,39,0.00,,,0.03,,2013-05-24 19:42:00,
2013-05-24 15:52:00,68.0,41.0,30.37,NW,304,8.0,17.0,38,0.00,,,0.03,,2013-05-24 19:52:00,
2013-05-24 16:02:00,69.0,44.0,30.37,NW,323,10.0,19.0,41,0.00,,,0.03,,2013-05-24 20:02:00,
2013-05-24 16:12:00,69.0,44.0,30.37,NW,323,10.0,19.0,41,0.00,,,0.03,,2013-05-24 20:12:00,
2013-05-24 16:22:00,70.0,45.0,30.37,NW,322,11.0,16.0,41,0.00,,,0.03,,2013-05-24 20:22:00,
2013-05-24 16:32:00,70.0,45.0,30.36,NNW,345,9.0,15.0,40,0.00,,,0.03,,2013-05-24 20:32:00,
2013-05-24 16:42:00,70.0,45.0,30.36,NNW,345,9.0,15.0,40,0.00,,,0.03,,2013-05-24 20:42:00,
2013-05-24 16:52:00,70.0,43.0,30.36,WNW,290,5.0,17.0,38,0.00,,,0.03,,2013-05-24 20:52:00,
2013-05-24 17:01:00,70.0,43.0,30.36,WNW,286,7.0,15.0,37,0.00,,,0.03,,2013-05-24 21:01:00,
2013-05-24 17:11:00,70.0,43.0,30.36,WNW,286,7.0,15.0,37,0.00,,,0.03,,2013-05-24 21:11:00,
2013-05-24 17:21:00,69.0,42.0,30.37,WNW,302,7.0,17.0,38,0.00,,,0.03,,2013-05-24 21:21:00,
2013-05-24 17:33:00,70.0,43.0,30.35,WNW,295,7.0,18.0,37,0.00,,,0.03,,2013-05-24 21:33:00,
2013-05-24 17:42:00,70.0,43.0,30.35,WNW,295,7.0,18.0,37,0.00,,,0.03,,2013-05-24 21:42:00,
2013-05-24 17:53:00,69.0,42.0,30.36,WNW,292,5.0,18.0,38,0.00,,,0.02,,2013-05-24 21:53:00,
2013-05-24 18:03:00,69.0,42.0,30.35,NW,326,6.0,15.0,38,0.00,,,0.02,,2013-05-24 22:03:00,
2013-05-24 18:12:00,69.0,42.0,30.35,NW,326,6.0,15.0,38,0.00,,,0.02,,2013-05-24 22:12:00,
2013-05-24 18:22:00,69.0,41.0,30.36,WNW,292,7.0,16.0,36,0.00,,,0.02,,2013-05-24 22:22:00,
2013-05-24 18:33:00,68.0,41.0,30.35,WNW,296,5.0,12.0,38,0.00,,,0.02,,2013-05-24 22:33:00,
2013-05-24 18:42:00,68.0,41.0,30.35,WNW,296,5.0,12.0,38,0.00,,,0.02,,2013-05-24 22:42:00,
2013-05-24 18:52:00,67.0,40.0,30.35,WSW,240,8.0,13.0,37,0.00,,,0.01,,2013-05-24 22:52:00,
2013-05-24 19:02:00,65.0,39.0,30.34,NW,309,8.0,14.0,39,0.00,,,0.01,,2013-05-24 23:02:00,
2013-05-24 19:11:00,65.0,39.0,30.34,NW,309,8.0,14.0,39,0.00,,,0.01,,2013-05-24 23:11:00,
2013-05-24 19:22:00,64.0,39.0,30.33,WNW,288,11.0,15.0,40,0.00,,,0.01,,2013-05-24 23:22:00,
2013-05-24 19:32:00,63.0,39.0,30.34,NW,316,10.0,15.0,41,0.00,,,0.01,,2013-05-24 23:32:00,
2013-05-24 19:42:00,63.0,39.0,30.34,NW,316,10.0,15.0,41,0.00,,,0.01,,2013-05-24 23:42:00,
2013-05-24 19:52:00,62.0,38.0,30.33,NNW,327,9.0,12.0,41,0.00,,,0.01,,2013-05-24 23:52:00,
2013-05-24 20:01:00,61.0,38.0,30.34,NW,314,5.0,11.0,43,0.00,,,0.01,,2013-05-25 00:01:00,
2013-05-24 20:12:00,61.0,38.0,30.34,NW,314,5.0,11.0,43,0.00,,,0.01,,2013-05-25 00:12:00,
2013-05-24 20:22:00,60.0,38.0,30.33,North,350,6.0,11.0,44,0.00,,,0.01,,2013-05-25 00:22:00,
2013-05-24 20:32:00,59.0,38.0,30.33,NNW,330,8.0,11.0,45,0.00,,,0.01,,2013-05-25 00:32:00,
2013-05-24 20:42:00,59.0,38.0,30.33,NNW,330,8.0,11.0,45,0.00,,,0.01,,2013-05-25 00:42:00,
2013-05-24 20:51:00,59.0,39.0,30.33,NNW,330,5.0,11.0,47,0.00,,,0.01,,2013-05-25 00:51:00,
2013-05-24 21:01:00,57.0,38.0,30.33,NNW,343,3.0,5.0,49,0.00,,,0.01,,2013-05-25 01:01:00,
2013-05-24 21:11:00,57.0,38.0,30.33,NNW,343,3.0,5.0,49,0.00,,,0.01,,2013-05-25 01:11:00,
2013-05-24 21:22:00,57.0,38.0,30.33,NNW,343,3.0,5.0,49,0.00,,,0.01,,2013-05-25 01:22:00,
2013-05-24 21:32:00,55.0,38.0,30.33,NNW,342,2.0,3.0,52,0.00,,,0.01,,2013-05-25 01:32:00,
2013-05-24 21:42:00,55.0,38.0,30.33,NNW,342,2.0,3.0,52,0.00,,,0.01,,2013-05-25 01:42:00,
2013-05-24 21:52:00,54.0,38.0,30.34,NNW,342,0.0,1.0,54,0.00,,,0.01,,2013-05-25 01:52:00,
2013-05-24 22:02:00,53.0,37.0,30.34,NNW,342,2.0,3.0,54,0.00,,,0.01,,2013-05-25 02:02:00,
2013-05-24 22:12:00,53.0,37.0,30.34,NNW,342,2.0,3.0,54,0.00,,,0.01,,2013-05-25 02:12:00,
2013-05-24 22:21:00,51.0,38.0,30.35,NNE,18,4.0,5.0,61,0.00,,,0.01,,2013-05-25 02:21:00,
2013-05-24 22:32:00,50.0,38.0,30.36,NNE,18,3.0,5.0,62,0.00,,,0.01,,2013-05-25 02:32:00,
2013-05-24 22:42:00,50.0,38.0,30.36,NNE,18,3.0,5.0,62,0.00,,,0.01,,2013-05-25 02:42:00,
2013-05-24 22:52:00,50.0,38.0,30.37,NNE,19,4.0,5.0,62,0.00,,,0.01,,2013-05-25 02:52:00,
2013-05-24 23:02:00,50.0,38.0,30.37,NNE,18,4.0,5.0,63,0.00,,,0.01,,2013-05-25 03:02:00,
2013-05-24 23:11:00,50.0,38.0,30.37,NNE,18,4.0,5.0,63,0.00,,,0.01,,2013-05-25 03:11:00,
2013-05-24 23:21:00,50.0,38.0,30.38,NNE,18,4.0,6.0,63,0.00,,,0.01,,2013-05-25 03:21:00,
2013-05-24 23:33:00,49.0,38.0,30.38,NNE,18,5.0,6.0,65,0.00,,,0.01,,2013-05-25 03:33:00,
2013-05-24 23:43:00,49.0,38.0,30.38,NNE,18,5.0,6.0,65,0.00,,,0.01,,2013-05-25 03:43:00,
2013-05-24 23:53:00,49.0,38.0,30.38,NNE,18,4.0,5.0,65,0.00,,,0.01,,2013-05-25 03:53:00,